Back to catalog

STARLINK-1283

AliveCommunicationsVLEO
NORAD 45389·PAYLOAD·🇺🇸 United States

Launched Mar 18, 2020 from Cape Canaveral Space Force Station

Loading…

Next Passes (next 24 hours)

TLE

FreshSource: CelesTrak SupGP

Epoch: Sep 14, 2026, 12:33 UTC

1 45389C 20019AF  26257.52340278  .00135980  00000+0  48397-3 0  2570
2 45389  53.0274 252.6192 0005487  53.2746 180.4041 15.88102657    12

Track STARLINK-1283 in real time with AllMySat

Download on the App Store